Location: Ferchesar
(52.6477°N, 12.4298°E)
Time: 14:26:35
(UTC+01:00)

Vanguard 3 - Pass Details

Date: 03 December 2021
Orbit: 508 x 3260 km, 33.3° (Epoch: 25 January)

Event Time Altitude Azimuth Distance (km) Brightness Sun altitude
Exits shadow 04:27:59 13° 217° (SW) 5,931 11.2 -31.3°
Maximum altitude 04:42:27 33° 166° (SSE) 4,196 10.7 -29.1°
Drops below altitude 10° 04:55:12 10° 110° (ESE) 4,946 12.0 -27.1°
Sets 04:58:58 0° 101° (E) 5,596 12.7 -26.6°
